SCP
0 0 0 0 0 0 0 0 0 0 0 0 0 0 0 0 0 0 0 0 0 1 1 1 1 1 1 0 0 1 1 1 1 1 1 1 1 1 1 1 1 1 1 1 1 1 1 1 1
0 0 0 0 0 0 0 0 0 0 0 0 0 0 0 0 0 0 0 0 0 1 1 1 1 1 1 1 1 1 1 1 1 1 1 1 1 1 2 2 2 1 1 1 1 1 1 1 1
0 0 0 0 0 0 0 0 0 0 0 0 0 0 0 0 0 0 0 0 0 1 1 1 1 1 1 1 1 1 1 1 1 1 1 1 1 2 3 3 2 2 1 1 1 1 1 1 1
0 0 1 0 0 0 0 0 0 0 0 0 0 0 0 0 0 1 1 0 0 1 1 1 1 1 1 1 1 1 1 1 1 1 1 1 1 2 3 3 2 2 1 1 1 1 1 1 1
1 1 1 0 0 0 0 0 0 0 0 0 0 0 0 0 1 1 1 1 0 0 1 1 1 1 1 1 1 1 1 1 1 1 1 1 1 2 3 3 2 2 1 1 1 1 1 1 1
2 1 1 0 0 0 0 1 0 0 0 0 0 0 0 0 1 1 1 1 0 0 0 1 1 1 1 1 1 1 1 1 1 1 1 1 1 1 2 2 2 2 1 1 1 1 1 1 1
2 1 1 1 0 0 0 1 1 0 0 0 0 0 0 0 0 1 1 0 0 0 0 0 0 1 1 1 1 1 1 1 1 1 1 1 1 1 1 2 2 2 1 1 1 1 1 1 1
2 1 1 1 0 0 0 1 1 1 1 0 0 0 0 0 0 0 0 0 0 0 0 0 0 0 1 1 1 1 1 1 1 1 1 1 1 1 1 1 1 1 1 1 2 2 1 1 1
2 1 0 0 0 0 1 1 1 1 1 1 0 0 0 0 0 0 0 0 0 0 0 0 0 0 0 1 1 1 1 1 1 1 1 1 1 1 1 1 1 1 1 2 2 2 2 1 1
1 1 0 0 0 0 1 1 1 1 1 1 1 1 1 1 0 0 0 0 0 0 0 0 0 0 0 0 1 1 1 1 1 1 0 0 0 0 1 1 2 2 2 2 2 2 1 1 1
1 1 1 0 0 1 1 1 1 1 1 1 1 1 1 1 0 0 0 0 0 0 0 0 0 0 0 0 0 0 0 0 0 0 0 0 0 0 1 1 2 2 2 1 1 1 1 1 1
1 1 1 0 0 0 1 1 1 1 0 1 1 1 1 0 0 0 0 0 0 0 0 0 0 0 0 1 0 0 0 0 0 0 0 0 0 0 1 1 1 1 1 1 1 1 1 1 1
0 1 1 1 1 0 0 0 0 1 1 1 1 1 1 0 0 0 0 0 0 0 0 0 0 1 1 1 1 0 0 0 0 0 0 0 0 0 1 1 1 1 1 1 1 1 1 1 1
0 1 1 1 0 0 0 0 1 1 1 1 1 1 0 0 0 0 0 0 0 0 0 0 0 1 1 1 1 0 0 0 0 0 0 1 1 1 1 1 0 0 0 0 0 1 1 1 1
1 1 1 1 0 0 0 0 1 1 1 1 1 1 0 0 0 0 0 0 0 0 0 0 1 1 1 1 1 0 0 0 0 0 1 1 1 1 1 0 0 0 0 0 0 1 1 1 1
1 1 1 1 0 0 0 0 0 1 1 1 1 1 0 0 0 0 0 0 0 0 0 1 1 1 1 1 1 0 0 0 0 0 0 0 1 1 1 1 1 0 0 0 0 1 1 1 1
0 1 1 1 1 0 0 0 1 1 1 1 1 0 0 0 0 0 0 0 0 0 0 1 1 1 1 0 0 0 0 1 1 0 0 0 0 1 1 1 1 1 0 0 0 0 1 1 1
0 0 0 1 0 0 0 0 1 1 1 1 1 0 0 0 0 0 0 0 0 0 1 1 1 1 0 0 0 1 1 1 1 0 0 0 1 1 1 1 1 1 0 0 0 0 0 0 0
0 0 0 0 0 0 0 0 1 1 1 1 1 0 0 0 0 0 0 0 0 0 1 1 1 1 1 1 1 1 1 1 1 0 0 1 1 1 1 1 1 1 1 0 0 0 0 0 0
0 0 0 0 0 0 0 0 0 1 1 1 1 1 1 1 1 0 0 0 0 1 1 1 1 0 1 1 1 1 1 1 0 0 0 0 1 1 0 1 1 1 1 0 1 1 1 1 1
0 0 0 0 0 0 0 0 0 1 1 1 1 1 1 1 1 1 0 0 1 1 1 1 0 0 1 1 1 1 1 1 1 1 1 1 1 1 0 0 0 0 0 0 1 1 1 1 1
0 0 0 0 0 0 0 0 0 1 1 1 1 1 1 1 1 1 0 0 1 1 1 0 0 0 1 1 1 1 1 1 1 1 1 1 1 1 1 0 0 0 0 1 1 1 1 1 1
0 0 0 0 0 0 0 0 0 0 1 1 1 1 1 1 1 0 0 0 1 1 1 0 0 0 1 1 1 1 1 1 1 1 1 1 1 1 1 1 1 1 1 1 1 1 1 1 1
0 0 0 0 0 0 0 0 0 0 1 1 1 1 1 1 1 1 1 1 1 1 1 1 0 0 1 1 1 1 1 1 1 1 1 1 1 1 1 1 1 1 1 1 0 0 1 1 1
0 0 0 0 0 0 0 0 0 0 0 1 1 2 2 1 1 1 1 1 2 2 1 1 1 1 1 1 2 3 2 1 1 1 1 1 1 1 1 1 1 1 1 1 1 1 1 1 1
0 0 0 0 0 0 0 0 0 0 1 1 2 2 2 2 2 1 1 2 2 2 2 2 1 1 1 2 3 5 5 4 2 1 1 1 1 1 1 1 1 1 1 1 1 1 1 1 1
0 0 0 0 0 0 0 0 0 1 1 1 2 3 3 2 2 2 1 1 2 2 2 2 2 2 2 3 5 7 7 7 5 3 1 1 1 1 1 1 1 1 1 1 1 1 1 1 1
0 0 0 0 0 0 0 0 1 1 1 1 2 3 3 2 2 2 1 1 2 2 2 2 2 2 3 5 6 7 6 6 6 5 2 1 1 1 1 1 1 1 1 1 1 1 1 0 0
0 0 0 0 0 0 0 1 1 1 1 2 2 3 2 2 2 2 1 1 1 2 2 2 2 3 4 5 5 4 3 3 5 5 3 1 1 1 1 1 1 1 1 1 1 1 1 0 0
0 0 0 0 0 0 0 1 1 1 1 2 3 3 2 2 2 1 1 1 1 2 2 2 2 3 4 4 3 2 1 1 3 4 3 2 1 1 2 2 2 1 1 1 1 1 1 1 0
Wind_Speed
8 6 3 1 3 4 2 3 1 2 2 2 3 5 4 3 1 1 1 1 1 1 1 1 2 3 3 3 4 5 5 6 6 6 5 6 7 7 9 9 10 10 10 10 9 9 9 9 8
5 5 1 2 4 3 3 2 2 2 2 2 4 4 5 3 2 2 1 1 2 1 1 1 2 3 3 3 4 4 5 5 5 5 6 7 7 8 9 10 9 9 9 9 9 9 9 8 7
6 3 2 3 3 2 1 0 2 2 2 2 3 4 4 2 1 1 1 2 3 2 2 1 3 3 4 3 4 4 5 5 5 6 6 7 8 9 10 10 9 9 9 9 9 9 8 8 7
3 1 3 4 3 1 1 1 3 3 2 4 3 4 3 3 1 2 3 4 3 2 2 1 4 4 4 4 4 4 4 5 5 6 7 7 7 8 9 9 8 8 9 8 8 8 7 7 6
2 3 4 3 2 1 1 2 2 2 2 3 4 4 3 4 5 6 5 4 3 1 2 2 4 4 4 4 4 4 4 4 5 5 6 7 7 7 8 8 7 7 7 7 7 7 7 6 6
3 3 4 2 2 2 1 2 3 3 3 3 3 3 2 2 4 4 4 3 2 2 2 2 3 4 5 5 4 5 5 4 5 5 5 6 6 6 6 6 6 6 6 5 5 6 6 6 5
3 3 2 1 0 1 1 2 3 3 3 2 3 3 1 2 2 4 4 4 3 3 3 3 3 3 4 5 5 5 5 4 4 4 4 4 4 5 4 5 5 5 5 4 4 5 5 5 5
3 3 2 0 1 1 1 2 2 3 2 3 3 4 2 2 3 5 5 4 4 4 3 3 3 4 3 3 5 5 5 4 4 4 4 4 3 3 3 3 3 3 3 3 3 3 4 5 5
3 4 1 3 3 2 2 3 2 3 4 2 2 3 3 7 7 6 4 3 3 3 3 3 3 3 4 3 4 4 5 5 5 3 4 3 2 1 1 1 2 2 2 2 2 2 3 4 4
3 2 4 3 4 3 2 3 4 4 3 2 4 5 7 8 7 6 4 3 1 1 2 2 2 2 3 3 3 3 3 3 4 3 3 3 3 2 2 2 2 2 2 2 3 4 5 5 3
3 4 2 1 3 4 3 2 3 6 2 4 6 8 8 7 6 5 4 3 2 1 1 2 2 2 3 2 2 2 2 2 3 4 4 3 3 3 3 2 2 3 3 3 4 5 4 4 3
2 3 2 2 3 3 3 3 3 3 4 5 8 10 9 7 6 5 5 3 2 1 1 1 1 2 2 2 2 2 2 2 2 2 3 3 3 3 3 3 3 2 2 3 3 3 4 4 3
1 1 0 3 4 4 4 3 4 2 4 8 9 8 8 7 5 3 3 3 2 2 1 1 2 2 2 2 1 2 2 2 2 2 2 2 2 2 3 2 2 3 2 3 3 3 4 3 3
1 1 2 2 3 2 5 2 3 2 7 9 8 7 6 6 5 4 3 3 2 2 1 1 2 1 2 2 1 1 1 1 1 1 1 2 2 2 2 2 2 2 2 2 2 3 3 2 2
2 3 4 1 2 2 5 2 1 4 8 8 7 6 5 4 5 5 5 4 3 2 2 2 2 1 2 1 1 1 1 1 1 1 2 2 2 2 2 2 2 2 2 2 2 3 3 2 2
3 4 2 2 1 2 4 2 2 6 8 7 6 6 5 4 5 4 4 3 3 3 2 1 2 2 1 1 1 1 1 1 1 1 2 1 2 2 2 2 1 1 2 2 2 2 2 2 2
4 1 1 2 1 2 3 3 2 6 8 7 6 6 5 4 4 4 4 4 4 3 3 2 1 2 1 1 1 1 2 2 1 1 1 1 2 2 2 2 1 1 2 2 1 2 2 2 2
2 1 2 2 2 3 2 3 2 6 7 6 5 5 5 6 6 5 4 4 4 3 3 2 2 1 2 2 2 2 2 2 2 1 1 1 1 2 2 2 1 2 2 2 1 1 1 1 1
3 2 2 4 2 3 3 3 3 5 6 6 5 6 6 6 5 4 4 4 3 3 3 3 2 2 2 1 1 1 1 1 1 1 2 2 2 2 2 2 1 1 1 1 2 2 2 1 1
2 1 1 3 2 2 1 2 2 5 7 7 8 7 7 5 3 3 4 4 4 4 4 4 3 3 2 2 1 1 1 0 0 1 2 2 2 1 1 1 1 1 1 1 1 2 1 0 1
0 3 3 2 2 4 2 3 2 1 2 3 5 6 6 8 7 6 5 5 4 5 6 5 4 3 3 2 2 2 2 2 2 2 1 2 1 1 1 1 1 1 1 1 1 2 2 1 0
2 3 4 3 3 2 2 2 5 2 2 4 5 6 7 7 7 6 6 6 6 6 5 5 4 3 2 3 2 3 2 1 1 1 1 2 2 1 0 1 1 1 1 1 2 2 2 2 1
3 1 3 3 4 2 2 1 7 1 3 6 6 7 7 8 8 8 8 8 6 6 5 4 4 3 3 3 3 3 2 1 0 0 1 1 2 1 1 1 1 1 1 1 1 1 1 1 2
4 6 6 5 5 1 1 2 6 3 5 5 4 5 6 7 7 7 6 5 4 4 4 4 4 3 3 3 3 3 3 2 1 1 0 1 1 1 1 0 0 1 1 1 1 1 1 1 1
4 6 4 5 4 3 1 2 7 5 4 5 4 5 5 6 6 6 6 6 6 6 5 4 5 4 3 3 3 3 3 3 3 2 1 1 1 1 2 1 0 1 1 1 1 1 1 1 1
3 7 7 4 4 4 2 3 6 3 2 1 0 0 2 4 5 6 7 7 7 6 5 5 5 4 3 3 3 2 3 2 2 2 2 2 2 2 1 1 1 1 1 1 1 1 1 1 1
4 2 4 7 2 0 4 5 6 2 4 4 3 2 1 3 5 5 5 5 5 5 6 6 6 4 4 3 2 2 2 2 2 2 2 2 2 1 1 1 1 0 1 1 1 1 1 1 1
4 7 5 6 5 2 4 3 4 4 3 2 2 0 1 1 3 4 4 4 4 4 4 5 5 5 3 3 2 2 2 2 2 2 2 2 2 1 0 0 0 0 1 1 1 1 1 1 1
3 4 5 5 5 6 2 6 4 5 3 2 3 2 2 2 3 4 3 3 3 3 3 3 4 3 3 3 2 2 2 2 2 2 2 2 1 1 1 1 1 0 0 1 1 1 1 1 1
4 5 7 5 3 3 3 7 3 2 3 2 2 2 1 2 2 2 3 3 4 4 3 3 3 3 3 3 2 2 2 1 2 2 2 1 1 1 1 1 1 1 1 1 1 2 2 2 2
Wind_Direction
152 141 139 124 53 47 8 336 20 43 36 30 65 74 77 65 78 147 294 82 70 52 290 171 100 102 106 104 110 112 111 111 112 115 119 125 129 138 142 145 144 146 149 148 145 140 139 140 143
144 149 149 62 71 50 337 339 41 61 129 124 75 69 65 54 50 87 15 56 70 70 27 124 110 99 97 98 106 117 116 116 118 114 112 123 131 137 139 139 140 146 148 147 145 143 144 145 142
156 172 84 63 70 137 228 326 106 97 104 66 67 57 71 69 72 119 173 111 79 63 25 36 98 95 93 92 104 117 121 123 121 113 107 119 126 131 135 136 139 144 146 146 146 146 148 146 145
147 67 54 59 39 288 192 164 133 109 50 45 76 65 56 40 104 127 115 109 90 55 13 24 75 75 79 87 94 102 113 122 124 119 112 114 123 128 129 131 135 142 145 147 148 150 150 149 147
80 77 54 36 353 334 91 132 115 82 58 54 72 75 37 6 76 101 108 109 103 59 14 37 72 71 74 81 84 91 102 114 119 114 111 112 115 119 123 126 130 136 143 148 150 151 152 150 149
59 66 66 27 342 1 59 99 95 68 74 78 79 80 44 36 86 103 104 101 98 76 32 34 65 69 67 69 77 83 89 106 113 117 114 114 116 117 121 128 134 138 142 151 156 158 155 153 150
95 84 99 130 339 359 111 100 91 95 88 88 101 84 54 32 77 100 88 83 71 56 40 20 16 36 59 62 67 74 74 94 109 115 120 118 117 119 125 134 137 138 145 150 159 168 164 160 152
128 94 77 141 152 262 128 102 94 103 94 100 98 122 168 193 106 91 78 67 57 46 32 23 21 26 32 38 57 67 64 76 92 101 109 114 121 127 131 135 139 141 145 153 169 180 174 167 155
112 74 168 199 178 201 142 115 102 85 102 88 84 133 150 130 114 96 80 59 47 41 22 22 23 28 32 33 49 50 53 58 66 76 86 81 54 69 112 137 124 125 135 134 120 121 128 124 123
105 123 227 206 178 163 138 140 142 102 92 79 70 78 112 124 126 124 127 128 117 50 13 25 37 39 35 40 40 21 30 39 44 45 45 39 33 50 60 66 83 85 78 82 77 76 87 93 96
149 187 224 207 157 132 127 132 123 126 148 183 159 145 136 133 134 141 151 155 160 148 34 24 48 45 47 40 38 26 24 32 41 42 40 39 40 44 46 43 45 46 54 59 60 57 65 79 88
160 240 195 161 122 122 140 132 118 155 191 166 155 149 145 149 159 166 167 162 144 120 96 36 60 60 55 49 39 39 35 38 41 40 38 45 49 43 42 46 49 49 48 54 53 63 66 74 79
161 285 60 125 106 111 105 117 129 129 118 124 132 139 153 161 171 173 162 150 144 142 136 71 74 76 66 55 37 55 47 43 38 42 48 63 68 57 52 49 52 51 54 59 63 71 72 72 63
193 68 56 82 107 113 112 100 104 137 130 133 143 157 169 172 168 157 160 163 169 175 166 123 87 84 84 73 56 45 50 42 47 38 44 73 84 81 72 56 49 48 58 67 73 74 74 68 58
85 65 29 30 92 111 105 50 188 154 140 146 156 164 174 179 173 179 183 177 177 175 163 154 145 111 104 89 55 56 50 57 56 41 48 71 91 93 89 77 61 46 56 64 71 64 63 63 58
52 59 22 297 107 120 114 236 225 152 152 163 168 172 182 193 195 196 184 174 171 162 159 177 156 123 112 91 61 42 46 53 40 41 52 68 101 111 105 94 77 55 59 66 76 69 61 53 47
33 44 271 294 186 125 131 228 216 163 162 175 180 183 186 197 210 206 187 177 176 174 168 163 151 134 129 99 66 47 43 43 36 44 50 59 92 114 115 108 96 81 74 68 84 74 75 61 38
248 258 270 258 223 128 160 240 220 179 174 186 189 190 192 202 215 205 191 179 173 170 166 163 158 142 114 87 60 40 34 26 29 32 32 51 74 95 109 114 100 100 93 77 75 81 66 77 51
184 186 264 273 208 151 194 237 230 187 184 194 198 201 206 215 217 197 189 179 167 167 168 176 169 165 125 101 99 70 13 356 10 11 14 28 55 77 100 107 93 99 105 111 111 107 83 49 45
161 164 279 325 34 124 159 278 251 191 198 198 199 203 208 207 205 206 194 182 181 184 188 187 186 179 171 162 149 145 135 60 20 6 15 17 40 61 94 116 126 129 125 117 124 131 112 52 56
238 194 207 213 33 43 78 341 318 265 216 204 204 204 206 204 202 200 202 202 190 196 198 194 193 188 184 163 115 86 63 39 30 17 356 350 17 40 73 137 152 165 157 161 171 162 151 169 7
281 242 185 159 100 348 68 292 298 273 273 230 220 212 212 206 199 198 203 206 204 205 195 190 188 183 181 156 146 151 152 168 223 232 310 340 9 13 39 119 151 181 179 183 204 169 163 158 182
200 64 86 100 115 63 31 97 293 331 271 256 234 221 213 205 200 198 202 205 204 196 188 185 180 179 174 164 165 161 170 186 200 73 7 347 353 358 357 87 123 168 180 191 192 161 162 170 176
140 70 57 47 67 31 256 153 284 253 234 258 242 220 209 200 204 204 202 194 193 186 182 174 175 184 177 173 172 171 178 177 178 241 278 318 326 329 328 31 144 180 188 196 196 184 180 188 185
83 86 39 9 16 261 276 177 256 266 248 234 235 225 211 196 196 199 194 194 194 188 188 179 176 190 188 183 186 188 188 183 199 221 219 240 286 283 279 271 211 198 214 204 169 171 208 199 190
151 137 153 182 213 276 329 239 262 289 307 300 277 190 166 180 194 201 203 200 199 194 186 181 185 194 189 189 195 190 185 186 216 220 211 222 238 251 254 240 231 202 186 168 147 167 221 179 196
128 144 154 128 131 2 291 290 305 1 14 26 41 53 123 187 190 199 198 188 191 190 189 182 181 186 192 189 186 190 187 184 209 234 219 232 244 251 237 216 215 190 157 157 150 168 207 174 195
119 138 98 112 137 227 293 291 270 296 317 348 8 316 284 216 192 194 184 171 175 188 188 174 173 183 183 173 183 202 203 204 198 193 229 245 248 253 225 205 180 141 128 145 156 182 202 169 242
100 92 99 106 142 153 228 271 243 223 222 230 251 239 229 214 200 196 181 159 151 146 152 166 171 170 172 177 183 217 215 208 195 210 225 235 243 233 226 219 203 192 180 177 181 209 198 207 261
143 153 145 145 194 162 167 263 294 221 220 217 246 257 234 207 192 176 159 141 145 158 164 171 177 180 185 174 180 217 223 210 216 231 230 215 219 225 221 206 213 231 232 217 214 226 217 217 240